Time,TemperatureF,DewpointF,PressureIn,WindDirection,WindDirectionDegrees,WindSpeedMPH,WindSpeedGustMPH,Humidity,HourlyPrecipIn,Conditions,Clouds,dailyrainin,SoftwareType,DateUTC
2013-11-16 00:00:00,47.3,47.3,30.28,West,259,0.0,0.0,100,0.04,,OVC055,0.27,VWS V14.01,2013-11-16 05:00:00,
2013-11-16 00:01:00,47.3,47.3,30.28,West,259,0.0,0.0,100,0.03,,OVC055,0.00,VWS V14.01,2013-11-16 05:01:00,
2013-11-16 00:06:00,47.3,47.3,30.28,West,259,0.0,0.0,100,0.03,,OVC055,0.00,VWS V14.01,2013-11-16 05:06:00,
2013-11-16 00:11:00,47.3,47.3,30.27,West,259,0.0,0.0,100,0.03,,OVC055,0.00,VWS V14.01,2013-11-16 05:11:00,
2013-11-16 00:16:00,47.3,47.3,30.27,West,259,0.0,0.0,100,0.03,,OVC055,0.00,VWS V14.01,2013-11-16 05:16:00,
2013-11-16 00:21:00,47.3,47.3,30.27,West,259,0.0,0.0,100,0.04,,OVC055,0.01,VWS V14.01,2013-11-16 05:21:00,
2013-11-16 00:26:00,47.2,47.2,30.28,West,259,0.0,0.0,100,0.04,,OVC055,0.01,VWS V14.01,2013-11-16 05:26:00,
2013-11-16 00:30:00,47.2,47.2,30.27,West,259,0.0,0.0,100,0.04,,OVC055,0.01,VWS V14.01,2013-11-16 05:30:00,
2013-11-16 00:31:00,47.3,47.3,30.27,West,259,0.0,0.0,100,0.02,,OVC055,0.01,VWS V14.01,2013-11-16 05:31:00,
2013-11-16 00:36:00,47.2,47.2,30.27,West,259,0.0,0.0,100,0.02,,OVC055,0.01,VWS V14.01,2013-11-16 05:36:00,
2013-11-16 00:41:00,47.3,47.3,30.27,West,259,0.0,0.0,100,0.02,,OVC055,0.01,VWS V14.01,2013-11-16 05:41:00,
2013-11-16 00:46:00,47.3,47.3,30.27,West,259,0.0,0.0,100,0.03,,OVC055,0.02,VWS V14.01,2013-11-16 05:46:00,
2013-11-16 00:51:00,47.3,47.3,30.27,West,259,0.0,0.0,100,0.03,,OVC055,0.02,VWS V14.01,2013-11-16 05:51:00,
2013-11-16 00:56:00,47.3,47.3,30.27,West,259,0.0,0.0,100,0.04,,OVC055,0.03,VWS V14.01,2013-11-16 05:56:00,
2013-11-16 01:00:00,47.3,47.3,30.27,West,259,0.0,0.0,100,0.04,,OVC055,0.03,VWS V14.01,2013-11-16 06:00:00,
2013-11-16 01:01:00,47.3,47.3,30.27,West,259,0.0,0.0,100,0.03,,OVC055,0.03,VWS V14.01,2013-11-16 06:01:00,
2013-11-16 01:06:00,47.3,47.3,30.27,West,259,0.0,0.0,100,0.03,,OVC055,0.03,VWS V14.01,2013-11-16 06:06:00,
2013-11-16 01:11:00,47.3,47.3,30.28,West,259,0.0,0.0,100,0.03,,OVC055,0.03,VWS V14.01,2013-11-16 06:11:00,
2013-11-16 01:16:00,47.3,47.3,30.27,West,259,0.0,0.0,100,0.03,,OVC055,0.03,VWS V14.01,2013-11-16 06:16:00,
2013-11-16 01:21:00,47.3,47.3,30.27,West,259,0.0,0.0,100,0.03,,OVC055,0.03,VWS V14.01,2013-11-16 06:21:00,
2013-11-16 01:26:00,47.3,47.3,30.27,West,259,0.0,0.0,100,0.03,,OVC055,0.03,VWS V14.01,2013-11-16 06:26:00,
2013-11-16 01:30:00,47.3,47.3,30.27,West,259,0.0,0.0,100,0.03,,OVC055,0.03,VWS V14.01,2013-11-16 06:30:00,
2013-11-16 01:31:00,47.3,47.3,30.27,West,259,0.0,0.0,100,0.02,,OVC055,0.03,VWS V14.01,2013-11-16 06:31:00,
2013-11-16 01:36:00,47.3,47.3,30.27,West,259,0.0,0.0,100,0.02,,OVC055,0.03,VWS V14.01,2013-11-16 06:36:00,
2013-11-16 01:41:00,47.3,47.3,30.27,West,259,0.0,0.0,100,0.02,,OVC055,0.03,VWS V14.01,2013-11-16 06:41:00,
2013-11-16 01:46:00,47.4,47.4,30.28,West,259,0.0,0.0,100,0.02,,OVC055,0.03,VWS V14.01,2013-11-16 06:46:00,
2013-11-16 01:51:00,47.4,47.4,30.27,West,259,0.0,0.0,100,0.02,,OVC055,0.03,VWS V14.01,2013-11-16 06:51:00,
2013-11-16 01:56:00,47.4,47.4,30.27,West,259,0.0,0.0,100,0.02,,OVC055,0.03,VWS V14.01,2013-11-16 06:56:00,
2013-11-16 02:00:00,47.3,47.3,30.27,West,259,0.0,0.0,100,0.02,,OVC055,0.03,VWS V14.01,2013-11-16 07:00:00,
2013-11-16 02:01:00,47.3,47.3,30.27,West,259,0.0,0.0,100,0.00,,OVC055,0.03,VWS V14.01,2013-11-16 07:01:00,
2013-11-16 02:06:00,47.4,47.4,30.27,West,259,0.0,0.0,100,0.00,,OVC055,0.03,VWS V14.01,2013-11-16 07:06:00,
2013-11-16 02:11:00,47.4,47.4,30.27,West,259,0.0,0.0,100,0.00,,OVC055,0.03,VWS V14.01,2013-11-16 07:11:00,
2013-11-16 02:16:00,47.4,47.4,30.27,West,259,0.0,0.0,100,0.00,,OVC055,0.03,VWS V14.01,2013-11-16 07:16:00,
2013-11-16 02:21:00,47.4,47.4,30.27,West,259,0.0,0.0,100,0.00,,OVC055,0.03,VWS V14.01,2013-11-16 07:21:00,
2013-11-16 02:26:00,47.4,47.4,30.27,West,259,0.0,0.0,100,0.00,,OVC055,0.03,VWS V14.01,2013-11-16 07:26:00,
2013-11-16 02:30:00,47.4,47.4,30.27,West,259,0.0,0.0,100,0.00,,OVC055,0.03,VWS V14.01,2013-11-16 07:30:00,
2013-11-16 02:31:00,47.3,47.3,30.27,West,259,0.0,0.0,100,0.00,,OVC055,0.03,VWS V14.01,2013-11-16 07:31:00,
2013-11-16 02:36:00,47.3,47.3,30.26,West,259,0.0,0.0,100,0.00,,OVC055,0.03,VWS V14.01,2013-11-16 07:36:00,
2013-11-16 02:41:00,47.3,47.3,30.26,West,259,0.0,0.0,100,0.00,,OVC055,0.03,VWS V14.01,2013-11-16 07:41:00,
2013-11-16 02:46:00,47.3,47.3,30.27,West,259,0.0,0.0,100,0.00,,OVC055,0.03,VWS V14.01,2013-11-16 07:46:00,
2013-11-16 02:51:00,47.4,47.4,30.26,West,259,0.0,0.0,100,0.00,,OVC055,0.03,VWS V14.01,2013-11-16 07:51:00,
2013-11-16 02:56:00,47.4,47.4,30.27,West,259,0.0,0.0,100,0.00,,OVC055,0.03,VWS V14.01,2013-11-16 07:56:00,
2013-11-16 03:00:00,47.4,47.4,30.26,West,259,0.0,0.0,100,0.00,,OVC055,0.03,VWS V14.01,2013-11-16 08:00:00,
2013-11-16 03:01:00,47.4,47.4,30.27,West,259,0.0,0.0,100,0.00,,OVC055,0.03,VWS V14.01,2013-11-16 08:01:00,
2013-11-16 03:05:00,47.4,47.4,30.27,West,259,0.0,0.0,100,0.00,,OVC055,0.03,VWS V14.01,2013-11-16 08:05:00,
2013-11-16 03:10:00,47.4,47.4,30.27,West,259,0.0,0.0,100,0.00,,OVC055,0.03,VWS V14.01,2013-11-16 08:10:00,
2013-11-16 03:15:00,47.4,47.4,30.26,West,259,0.0,0.0,100,0.00,,OVC055,0.03,VWS V14.01,2013-11-16 08:15:00,
2013-11-16 03:20:00,47.5,47.5,30.26,West,259,0.0,0.0,100,0.00,,OVC055,0.03,VWS V14.01,2013-11-16 08:20:00,
2013-11-16 03:25:00,47.5,47.5,30.26,West,259,0.0,0.0,100,0.00,,OVC055,0.03,VWS V14.01,2013-11-16 08:25:00,
2013-11-16 03:30:00,47.5,47.5,30.26,West,259,0.0,0.0,100,0.00,,OVC055,0.03,VWS V14.01,2013-11-16 08:30:00,
2013-11-16 03:35:00,47.5,47.5,30.26,West,259,0.0,0.0,100,0.00,,OVC055,0.03,VWS V14.01,2013-11-16 08:35:00,
2013-11-16 03:40:00,47.5,47.5,30.25,West,259,0.0,0.0,100,0.00,,OVC055,0.03,VWS V14.01,2013-11-16 08:40:00,
2013-11-16 03:45:00,47.6,47.6,30.25,West,259,0.0,0.0,100,0.00,,OVC055,0.03,VWS V14.01,2013-11-16 08:45:00,
2013-11-16 03:50:00,47.6,47.6,30.25,West,259,0.0,0.0,100,0.00,,OVC055,0.03,VWS V14.01,2013-11-16 08:50:00,
2013-11-16 03:55:00,47.6,47.6,30.25,West,259,0.0,0.0,100,0.00,,OVC055,0.03,VWS V14.01,2013-11-16 08:55:00,
2013-11-16 04:00:00,47.6,47.6,30.26,West,259,0.0,0.0,100,0.00,,OVC055,0.03,VWS V14.01,2013-11-16 09:00:00,
2013-11-16 04:05:00,47.6,47.6,30.25,West,259,0.0,0.0,100,0.00,,OVC055,0.03,VWS V14.01,2013-11-16 09:05:00,
2013-11-16 04:10:00,47.6,47.6,30.25,West,259,0.0,0.0,100,0.00,,OVC055,0.03,VWS V14.01,2013-11-16 09:10:00,
2013-11-16 04:15:00,47.5,47.5,30.25,West,259,0.0,0.0,100,0.00,,OVC055,0.03,VWS V14.01,2013-11-16 09:15:00,
2013-11-16 04:20:00,47.5,47.5,30.25,West,259,0.0,0.0,100,0.00,,OVC055,0.03,VWS V14.01,2013-11-16 09:20:00,
2013-11-16 04:25:00,47.6,47.6,30.25,West,259,0.0,0.0,100,0.00,,OVC055,0.03,VWS V14.01,2013-11-16 09:25:00,
2013-11-16 04:30:00,47.7,47.7,30.25,West,259,0.0,0.0,100,0.00,,OVC055,0.03,VWS V14.01,2013-11-16 09:30:00,
2013-11-16 04:35:00,47.7,47.7,30.25,West,259,0.0,0.0,100,0.00,,OVC055,0.03,VWS V14.01,2013-11-16 09:35:00,
2013-11-16 04:40:00,47.8,47.8,30.25,West,259,0.0,0.0,100,0.00,,OVC055,0.03,VWS V14.01,2013-11-16 09:40:00,
2013-11-16 04:45:00,47.8,47.8,30.25,West,259,0.0,0.0,100,0.00,,OVC055,0.03,VWS V14.01,2013-11-16 09:45:00,
2013-11-16 04:50:00,47.8,47.8,30.25,West,259,0.0,0.0,100,0.00,,OVC055,0.03,VWS V14.01,2013-11-16 09:50:00,
2013-11-16 04:55:00,47.9,47.9,30.24,West,259,0.0,0.0,100,0.00,,OVC055,0.03,VWS V14.01,2013-11-16 09:55:00,
2013-11-16 05:00:00,47.9,47.9,30.24,West,259,0.0,0.0,100,0.00,,OVC055,0.03,VWS V14.01,2013-11-16 10:00:00,
2013-11-16 05:05:00,47.9,47.9,30.24,West,259,0.0,0.0,100,0.00,,OVC055,0.03,VWS V14.01,2013-11-16 10:05:00,
2013-11-16 05:10:00,47.9,47.9,30.24,West,259,0.0,2.0,100,0.00,,OVC055,0.03,VWS V14.01,2013-11-16 10:10:00,
2013-11-16 05:15:00,48.1,48.1,30.23,West,259,0.0,2.0,100,0.00,,OVC055,0.03,VWS V14.01,2013-11-16 10:15:00,
2013-11-16 05:20:00,48.2,48.2,30.23,West,263,0.0,3.0,100,0.00,,OVC055,0.03,VWS V14.01,2013-11-16 10:20:00,
2013-11-16 05:25:00,48.3,48.3,30.23,West,260,0.0,3.0,100,0.00,,OVC055,0.03,VWS V14.01,2013-11-16 10:25:00,
2013-11-16 05:30:00,48.3,48.3,30.23,SW,221,0.0,1.0,100,0.00,,OVC055,0.03,VWS V14.01,2013-11-16 10:30:00,
2013-11-16 05:35:00,48.1,48.1,30.23,West,272,0.0,4.0,100,0.00,,OVC055,0.03,VWS V14.01,2013-11-16 10:35:00,
2013-11-16 05:40:00,48.1,48.1,30.23,West,272,0.0,4.0,100,0.00,,OVC055,0.03,VWS V14.01,2013-11-16 10:40:00,
2013-11-16 05:45:00,48.0,48.0,30.23,West,272,0.0,4.0,100,0.00,,OVC055,0.03,VWS V14.01,2013-11-16 10:45:00,
2013-11-16 05:50:00,47.7,47.7,30.23,West,272,0.0,4.0,100,0.00,,OVC055,0.03,VWS V14.01,2013-11-16 10:50:00,
2013-11-16 05:55:00,47.8,47.8,30.23,West,272,0.0,4.0,100,0.00,,OVC055,0.03,VWS V14.01,2013-11-16 10:55:00,
2013-11-16 06:00:00,47.8,47.8,30.23,West,272,0.0,0.0,100,0.00,,OVC055,0.03,VWS V14.01,2013-11-16 11:00:00,
2013-11-16 06:05:00,47.9,47.9,30.23,West,272,0.0,0.0,100,0.00,,OVC055,0.03,VWS V14.01,2013-11-16 11:05:00,
2013-11-16 06:10:00,48.1,48.1,30.24,West,272,0.0,2.0,100,0.00,,OVC055,0.03,VWS V14.01,2013-11-16 11:10:00,
2013-11-16 06:15:00,48.1,48.1,30.24,West,272,0.0,2.0,100,0.00,,OVC055,0.03,VWS V14.01,2013-11-16 11:15:00,
2013-11-16 06:20:00,48.1,48.1,30.24,West,272,0.0,2.0,100,0.01,,OVC055,0.04,VWS V14.01,2013-11-16 11:20:00,
2013-11-16 06:25:00,48.1,48.1,30.24,West,272,0.0,2.0,100,0.01,,OVC055,0.04,VWS V14.01,2013-11-16 11:25:00,
2013-11-16 06:30:00,48.2,48.2,30.24,West,272,0.0,0.0,100,0.01,,OVC055,0.04,VWS V14.01,2013-11-16 11:30:00,
2013-11-16 06:35:00,48.3,48.3,30.25,West,272,0.0,0.0,100,0.01,,OVC055,0.04,VWS V14.01,2013-11-16 11:35:00,
2013-11-16 06:40:00,48.2,48.2,30.25,West,272,0.0,0.0,100,0.01,,OVC055,0.04,VWS V14.01,2013-11-16 11:40:00,
2013-11-16 06:45:00,48.2,48.2,30.25,West,272,0.0,0.0,100,0.01,,OVC055,0.04,VWS V14.01,2013-11-16 11:45:00,
2013-11-16 06:50:00,48.3,48.3,30.24,West,272,0.0,0.0,100,0.01,,OVC055,0.04,VWS V14.01,2013-11-16 11:50:00,
2013-11-16 06:55:00,48.5,48.5,30.25,West,272,0.0,0.0,100,0.01,,OVC055,0.04,VWS V14.01,2013-11-16 11:55:00,
2013-11-16 07:00:00,48.6,48.6,30.25,West,272,0.0,0.0,100,0.01,,OVC055,0.04,VWS V14.01,2013-11-16 12:00:00,
2013-11-16 07:05:00,48.8,48.8,30.24,West,272,0.0,0.0,100,0.01,,OVC055,0.04,VWS V14.01,2013-11-16 12:05:00,
2013-11-16 07:10:00,48.8,48.8,30.25,West,272,0.0,0.0,100,0.01,,OVC055,0.04,VWS V14.01,2013-11-16 12:10:00,
2013-11-16 07:15:00,48.8,48.8,30.25,West,272,0.0,0.0,100,0.01,,OVC055,0.04,VWS V14.01,2013-11-16 12:15:00,
2013-11-16 07:20:00,48.7,48.7,30.25,West,272,0.0,0.0,100,0.01,,OVC055,0.04,VWS V14.01,2013-11-16 12:20:00,
2013-11-16 07:25:00,48.7,48.7,30.25,West,272,0.0,0.0,100,0.01,,OVC055,0.04,VWS V14.01,2013-11-16 12:25:00,
2013-11-16 07:30:00,48.7,48.7,30.25,West,272,0.0,0.0,100,0.00,,OVC055,0.04,VWS V14.01,2013-11-16 12:30:00,
2013-11-16 07:35:00,48.7,48.7,30.26,West,272,0.0,0.0,100,0.00,,OVC055,0.04,VWS V14.01,2013-11-16 12:35:00,
2013-11-16 07:40:00,48.8,48.8,30.26,West,272,0.0,0.0,100,0.00,,OVC055,0.04,VWS V14.01,2013-11-16 12:40:00,
2013-11-16 07:45:00,48.9,48.9,30.26,West,272,0.0,0.0,100,0.00,,OVC055,0.04,VWS V14.01,2013-11-16 12:45:00,
2013-11-16 07:50:00,49.0,49.0,30.26,West,272,0.0,0.0,100,0.00,,OVC055,0.04,VWS V14.01,2013-11-16 12:50:00,
2013-11-16 07:55:00,49.0,49.0,30.27,West,272,0.0,1.0,100,0.00,,OVC055,0.04,VWS V14.01,2013-11-16 12:55:00,
2013-11-16 08:00:00,49.2,49.2,30.26,SSE,154,1.0,3.0,100,0.00,,OVC055,0.04,VWS V14.01,2013-11-16 13:00:00,
2013-11-16 08:05:00,49.4,49.4,30.27,SSE,154,0.0,3.0,100,0.00,,OVC055,0.04,VWS V14.01,2013-11-16 13:05:00,
2013-11-16 08:10:00,49.7,49.7,30.27,South,187,0.0,3.0,100,0.00,,OVC055,0.04,VWS V14.01,2013-11-16 13:10:00,
2013-11-16 08:15:00,49.7,49.7,30.26,East,93,1.0,3.0,100,0.00,,OVC055,0.04,VWS V14.01,2013-11-16 13:15:00,
2013-11-16 08:20:00,49.8,49.8,30.27,ENE,66,1.0,3.0,100,0.00,,OVC055,0.04,VWS V14.01,2013-11-16 13:20:00,
2013-11-16 08:25:00,49.9,49.9,30.27,ENE,66,0.0,3.0,100,0.00,,OVC055,0.04,VWS V14.01,2013-11-16 13:25:00,
2013-11-16 08:30:00,49.9,49.9,30.27,ENE,67,1.0,1.0,100,0.00,,OVC055,0.04,VWS V14.01,2013-11-16 13:30:00,
2013-11-16 08:35:00,50.0,50.0,30.27,ENE,67,1.0,1.0,100,0.00,,OVC055,0.04,VWS V14.01,2013-11-16 13:35:00,
2013-11-16 08:40:00,50.1,50.1,30.27,ENE,66,0.0,3.0,100,0.00,,OVC055,0.04,VWS V14.01,2013-11-16 13:40:00,
2013-11-16 08:45:00,50.1,50.1,30.27,ENE,67,0.0,3.0,100,0.00,,OVC055,0.04,VWS V14.01,2013-11-16 13:45:00,
2013-11-16 08:50:00,50.2,50.2,30.27,ENE,67,0.0,3.0,100,0.00,,OVC055,0.04,VWS V14.01,2013-11-16 13:50:00,
2013-11-16 08:55:00,50.3,50.3,30.27,ENE,67,0.0,3.0,100,0.00,,OVC055,0.04,VWS V14.01,2013-11-16 13:55:00,
2013-11-16 09:00:00,50.3,50.3,30.27,ENE,67,0.0,0.0,100,0.00,,OVC055,0.04,VWS V14.01,2013-11-16 14:00:00,
2013-11-16 09:05:00,50.5,50.5,30.27,ENE,67,0.0,1.0,100,0.00,,OVC055,0.04,VWS V14.01,2013-11-16 14:05:00,
2013-11-16 09:10:00,50.6,50.6,30.27,ENE,67,0.0,1.0,100,0.00,,OVC055,0.04,VWS V14.01,2013-11-16 14:10:00,
2013-11-16 09:15:00,50.6,50.6,30.27,ENE,66,0.0,1.0,100,0.00,,OVC055,0.04,VWS V14.01,2013-11-16 14:15:00,
2013-11-16 09:20:00,50.8,50.8,30.28,ENE,67,0.0,1.0,100,0.00,,OVC055,0.04,VWS V14.01,2013-11-16 14:20:00,
2013-11-16 09:25:00,50.9,50.9,30.28,ENE,67,0.0,1.0,100,0.00,,OVC055,0.04,VWS V14.01,2013-11-16 14:25:00,
2013-11-16 09:30:00,51.0,51.0,30.28,ENE,67,0.0,0.0,100,0.00,,OVC055,0.04,VWS V14.01,2013-11-16 14:30:00,
2013-11-16 09:35:00,51.2,51.2,30.28,ENE,67,0.0,1.0,100,0.00,,OVC055,0.04,VWS V14.01,2013-11-16 14:35:00,
2013-11-16 09:40:00,51.3,51.3,30.28,ENE,67,0.0,1.0,100,0.00,,OVC055,0.04,VWS V14.01,2013-11-16 14:40:00,
2013-11-16 09:45:00,51.4,51.4,30.28,ENE,67,1.0,2.0,100,0.00,,OVC055,0.04,VWS V14.01,2013-11-16 14:45:00,
2013-11-16 09:50:00,51.4,51.4,30.28,ENE,66,0.0,2.0,100,0.00,,OVC055,0.04,VWS V14.01,2013-11-16 14:50:00,
2013-11-16 09:55:00,51.4,51.4,30.28,ENE,67,1.0,2.0,100,0.00,,OVC055,0.04,VWS V14.01,2013-11-16 14:55:00,
2013-11-16 10:00:00,51.6,51.6,30.29,ENE,66,0.0,1.0,100,0.00,,OVC055,0.04,VWS V14.01,2013-11-16 15:00:00,
2013-11-16 10:05:00,51.6,51.6,30.29,ENE,66,2.0,2.0,100,0.00,,OVC055,0.04,VWS V14.01,2013-11-16 15:05:00,
2013-11-16 10:10:00,51.6,51.6,30.29,ENE,66,0.0,2.0,100,0.00,,OVC055,0.04,VWS V14.01,2013-11-16 15:10:00,
2013-11-16 10:15:00,51.7,51.7,30.29,ENE,66,0.0,2.0,100,0.00,,OVC055,0.04,VWS V14.01,2013-11-16 15:15:00,
2013-11-16 10:19:00,51.8,51.8,30.29,ENE,67,0.0,2.0,100,0.00,,OVC055,0.04,VWS V14.01,2013-11-16 15:19:00,
2013-11-16 10:24:00,52.0,52.0,30.29,ENE,67,0.0,2.0,100,0.00,,OVC055,0.04,VWS V14.01,2013-11-16 15:24:00,
2013-11-16 10:29:00,52.2,52.2,30.29,ENE,67,0.0,0.0,100,0.00,,OVC055,0.04,VWS V14.01,2013-11-16 15:29:00,
2013-11-16 10:30:00,52.1,52.1,30.29,ENE,67,0.0,2.0,100,0.00,,OVC055,0.04,VWS V14.01,2013-11-16 15:30:00,
2013-11-16 10:34:00,52.3,52.3,30.29,ENE,67,0.0,1.0,100,0.00,,OVC055,0.04,VWS V14.01,2013-11-16 15:34:00,
2013-11-16 10:39:00,52.5,52.5,30.30,ENE,67,1.0,2.0,100,0.00,,OVC055,0.04,VWS V14.01,2013-11-16 15:39:00,
2013-11-16 10:44:00,52.8,52.8,30.30,WNW,290,2.0,3.0,100,0.00,,OVC055,0.04,VWS V14.01,2013-11-16 15:44:00,
2013-11-16 10:49:00,52.7,52.7,30.30,WNW,290,0.0,3.0,100,0.00,,OVC055,0.04,VWS V14.01,2013-11-16 15:49:00,
2013-11-16 10:54:00,53.0,53.0,30.30,NW,309,0.0,3.0,100,0.00,,OVC055,0.04,VWS V14.01,2013-11-16 15:54:00,
2013-11-16 10:59:00,53.0,53.0,30.29,NW,309,0.0,2.0,100,0.00,,OVC055,0.04,VWS V14.01,2013-11-16 15:59:00,
2013-11-16 11:00:00,53.0,53.0,30.29,NW,309,2.0,3.0,100,0.00,,OVC055,0.04,VWS V14.01,2013-11-16 16:00:00,
2013-11-16 11:04:00,53.2,53.2,30.29,NW,309,0.0,2.0,100,0.00,,OVC055,0.04,VWS V14.01,2013-11-16 16:04:00,
2013-11-16 11:09:00,53.4,53.1,30.29,NW,309,0.0,2.0,99,0.00,,OVC055,0.04,VWS V14.01,2013-11-16 16:09:00,
2013-11-16 11:14:00,53.7,53.4,30.28,NW,309,0.0,2.0,99,0.00,,OVC055,0.04,VWS V14.01,2013-11-16 16:14:00,
2013-11-16 11:19:00,54.1,53.8,30.28,NW,309,0.0,2.0,99,0.00,,OVC055,0.04,VWS V14.01,2013-11-16 16:19:00,
2013-11-16 11:24:00,54.3,53.8,30.28,NW,309,0.0,2.0,98,0.00,,OVC055,0.04,VWS V14.01,2013-11-16 16:24:00,
2013-11-16 11:29:00,54.7,54.2,30.28,NW,309,1.0,1.0,98,0.00,,OVC055,0.04,VWS V14.01,2013-11-16 16:29:00,
2013-11-16 11:30:00,54.5,54.0,30.28,NW,309,0.0,2.0,98,0.00,,OVC055,0.04,VWS V14.01,2013-11-16 16:30:00,
2013-11-16 11:34:00,55.0,54.2,30.28,NW,311,0.0,2.0,97,0.00,,OVC055,0.04,VWS V14.01,2013-11-16 16:34:00,
2013-11-16 11:39:00,55.3,54.5,30.28,NW,311,0.0,2.0,97,0.00,,OVC055,0.04,VWS V14.01,2013-11-16 16:39:00,
2013-11-16 11:44:00,55.8,54.7,30.27,NW,311,1.0,2.0,96,0.00,,OVC055,0.04,VWS V14.01,2013-11-16 16:44:00,
2013-11-16 11:49:00,56.0,54.6,30.27,NW,311,0.0,2.0,95,0.00,,OVC055,0.04,VWS V14.01,2013-11-16 16:49:00,
2013-11-16 11:54:00,56.2,54.8,30.27,NW,311,0.0,2.0,95,0.00,,OVC055,0.04,VWS V14.01,2013-11-16 16:54:00,
2013-11-16 11:59:00,56.2,54.5,30.27,NW,311,0.0,2.0,94,0.00,,OVC055,0.04,VWS V14.01,2013-11-16 16:59:00,
2013-11-16 12:00:00,56.3,54.6,30.27,NW,311,2.0,2.0,94,0.00,,OVC055,0.04,VWS V14.01,2013-11-16 17:00:00,
2013-11-16 12:04:00,56.1,54.4,30.26,NW,311,0.0,2.0,94,0.00,,OVC055,0.04,VWS V14.01,2013-11-16 17:04:00,
2013-11-16 12:09:00,56.4,54.7,30.26,NW,312,0.0,2.0,94,0.00,,OVC055,0.04,VWS V14.01,2013-11-16 17:09:00,
2013-11-16 12:14:00,56.6,54.9,30.26,NW,312,1.0,2.0,94,0.00,,OVC055,0.04,VWS V14.01,2013-11-16 17:14:00,
2013-11-16 12:19:00,56.8,54.8,30.25,NW,312,0.0,2.0,93,0.00,,OVC055,0.04,VWS V14.01,2013-11-16 17:19:00,
2013-11-16 12:24:00,57.2,55.2,30.25,NW,312,1.0,2.0,93,0.00,,OVC055,0.04,VWS V14.01,2013-11-16 17:24:00,
2013-11-16 12:30:00,62.3,55.7,30.21,SE,141,1.0,5.0,79,0.00,,OVC055,0.04,VWS V14.01,2013-11-16 17:30:00,
2013-11-16 12:32:00,57.7,55.4,30.25,NW,324,2.0,2.0,92,0.00,,OVC055,0.04,VWS V14.01,2013-11-16 17:32:00,
2013-11-16 12:37:00,57.9,55.6,30.25,NW,324,0.0,2.0,92,0.00,,OVC055,0.04,VWS V14.01,2013-11-16 17:37:00,
2013-11-16 12:42:00,58.3,56.0,30.24,NW,324,1.0,2.0,92,0.00,,OVC055,0.04,VWS V14.01,2013-11-16 17:42:00,
2013-11-16 12:47:00,58.6,56.0,30.24,NNW,344,0.0,3.0,91,0.00,,OVC055,0.04,VWS V14.01,2013-11-16 17:47:00,
2013-11-16 12:54:00,59.4,56.5,30.24,NNW,345,1.0,1.0,90,0.00,,OVC055,0.04,VWS V14.01,2013-11-16 17:54:00,
2013-11-16 12:59:00,59.8,55.9,30.23,NNE,27,1.0,1.0,87,0.00,,OVC055,0.04,VWS V14.01,2013-11-16 17:59:00,
2013-11-16 13:00:00,59.6,55.7,30.23,NNE,27,0.0,2.0,87,0.00,,OVC055,0.04,VWS V14.01,2013-11-16 18:00:00,
2013-11-16 13:04:00,60.1,56.2,30.23,North,5,2.0,3.0,87,0.00,,OVC055,0.04,VWS V14.01,2013-11-16 18:04:00,
2013-11-16 13:09:00,60.4,56.2,30.22,North,5,1.0,3.0,86,0.00,,OVC055,0.04,VWS V14.01,2013-11-16 18:09:00,
2013-11-16 13:14:00,61.2,56.7,30.22,North,351,2.0,4.0,85,0.00,,OVC055,0.04,VWS V14.01,2013-11-16 18:14:00,
2013-11-16 13:19:00,61.8,56.2,30.21,NNE,22,2.0,5.0,82,0.00,,OVC055,0.04,VWS V14.01,2013-11-16 18:19:00,
2013-11-16 13:24:00,62.2,55.6,30.21,North,5,0.0,5.0,79,0.00,,OVC055,0.04,VWS V14.01,2013-11-16 18:24:00,
2013-11-16 13:29:00,62.3,55.7,30.21,SE,142,2.0,2.0,79,0.00,,OVC055,0.04,VWS V14.01,2013-11-16 18:29:00,
2013-11-16 13:30:00,62.3,55.7,30.21,SE,141,1.0,5.0,79,0.00,,OVC055,0.04,VWS V14.01,2013-11-16 18:30:00,
2013-11-16 13:34:00,62.4,55.5,30.21,SW,221,1.0,3.0,78,0.00,,OVC055,0.04,VWS V14.01,2013-11-16 18:34:00,
2013-11-16 13:39:00,62.5,55.2,30.20,NNW,329,1.0,3.0,77,0.00,,OVC055,0.04,VWS V14.01,2013-11-16 18:39:00,
2013-11-16 13:44:00,62.8,55.8,30.20,NNW,344,1.0,3.0,78,0.00,,OVC055,0.04,VWS V14.01,2013-11-16 18:44:00,
2013-11-16 13:49:00,62.8,56.2,30.20,West,277,0.0,5.0,79,0.00,,OVC055,0.04,VWS V14.01,2013-11-16 18:49:00,
2013-11-16 13:54:00,62.9,55.9,30.20,NNE,26,0.0,5.0,78,0.00,,OVC055,0.04,VWS V14.01,2013-11-16 18:54:00,
2013-11-16 13:59:00,63.3,55.6,30.20,NNW,331,0.0,4.0,76,0.00,,OVC055,0.04,VWS V14.01,2013-11-16 18:59:00,
2013-11-16 14:00:00,63.2,55.9,30.20,NNW,331,4.0,5.0,77,0.00,,OVC055,0.04,VWS V14.01,2013-11-16 19:00:00,
2013-11-16 14:04:00,63.5,55.4,30.19,NE,53,2.0,4.0,75,0.00,,OVC055,0.04,VWS V14.01,2013-11-16 19:04:00,
2013-11-16 14:09:00,63.5,55.8,30.19,West,280,0.0,5.0,76,0.00,,OVC055,0.04,VWS V14.01,2013-11-16 19:09:00,
2013-11-16 14:14:00,63.5,56.2,30.19,SW,214,0.0,5.0,77,0.00,,OVC055,0.04,VWS V14.01,2013-11-16 19:14:00,
2013-11-16 14:19:00,63.5,55.4,30.19,NE,49,1.0,5.0,75,0.00,,OVC055,0.04,VWS V14.01,2013-11-16 19:19:00,
2013-11-16 14:24:00,63.3,55.6,30.19,NW,321,0.0,5.0,76,0.00,,OVC055,0.04,VWS V14.01,2013-11-16 19:24:00,
2013-11-16 14:29:00,63.0,55.7,30.19,NW,313,0.0,1.0,77,0.00,,OVC055,0.04,VWS V14.01,2013-11-16 19:29:00,
2013-11-16 14:30:00,63.0,55.7,30.19,NW,313,0.0,5.0,77,0.00,,OVC055,0.04,VWS V14.01,2013-11-16 19:30:00,
2013-11-16 14:34:00,62.8,55.5,30.19,WSW,246,2.0,5.0,77,0.00,,OVC055,0.04,VWS V14.01,2013-11-16 19:34:00,
2013-11-16 14:39:00,62.6,55.7,30.20,West,261,1.0,5.0,78,0.00,,OVC055,0.04,VWS V14.01,2013-11-16 19:39:00,
2013-11-16 14:44:00,62.4,55.8,30.19,ENE,57,0.0,5.0,79,0.00,,OVC055,0.04,VWS V14.01,2013-11-16 19:44:00,
2013-11-16 14:49:00,62.5,55.6,30.19,North,5,1.0,5.0,78,0.00,,OVC055,0.04,VWS V14.01,2013-11-16 19:49:00,
2013-11-16 14:54:00,62.8,55.5,30.19,NNE,33,1.0,5.0,77,0.00,,OVC055,0.04,VWS V14.01,2013-11-16 19:54:00,
2013-11-16 14:59:00,62.6,56.3,30.20,West,263,1.0,2.0,80,0.00,,OVC055,0.04,VWS V14.01,2013-11-16 19:59:00,
2013-11-16 15:00:00,62.7,56.1,30.20,West,263,2.0,6.0,79,0.00,,OVC055,0.04,VWS V14.01,2013-11-16 20:00:00,
2013-11-16 15:04:00,62.1,56.5,30.20,SW,236,1.0,4.0,82,0.00,,OVC055,0.04,VWS V14.01,2013-11-16 20:04:00,
2013-11-16 15:09:00,61.6,56.4,30.20,WSW,256,0.0,4.0,83,0.00,,OVC055,0.04,VWS V14.01,2013-11-16 20:09:00,
2013-11-16 15:14:00,60.9,56.0,30.20,NW,325,0.0,4.0,84,0.00,,OVC055,0.04,VWS V14.01,2013-11-16 20:14:00,
2013-11-16 15:19:00,60.4,55.9,30.20,West,277,4.0,4.0,85,0.00,,OVC055,0.04,VWS V14.01,2013-11-16 20:19:00,
2013-11-16 15:24:00,59.9,55.7,30.20,WNW,288,0.0,4.0,86,0.00,,OVC055,0.04,VWS V14.01,2013-11-16 20:24:00,
2013-11-16 15:29:00,59.7,55.5,30.20,WNW,288,0.0,0.0,86,0.00,,OVC055,0.04,VWS V14.01,2013-11-16 20:29:00,
2013-11-16 15:30:00,59.7,55.5,30.20,WNW,288,0.0,4.0,86,0.00,,OVC055,0.04,VWS V14.01,2013-11-16 20:30:00,
2013-11-16 15:34:00,59.5,55.3,30.20,WNW,288,0.0,2.0,86,0.00,,OVC055,0.04,VWS V14.01,2013-11-16 20:34:00,
2013-11-16 15:39:00,59.3,55.4,30.21,SW,223,2.0,3.0,87,0.00,,OVC055,0.04,VWS V14.01,2013-11-16 20:39:00,
2013-11-16 15:44:00,59.2,55.7,30.20,SW,223,0.0,3.0,88,0.00,,OVC055,0.04,VWS V14.01,2013-11-16 20:44:00,
2013-11-16 15:49:00,59.1,55.2,30.21,SW,223,0.0,3.0,87,0.00,,OVC055,0.04,VWS V14.01,2013-11-16 20:49:00,
2013-11-16 15:54:00,59.0,55.1,30.21,SW,225,0.0,3.0,87,0.00,,OVC055,0.04,VWS V14.01,2013-11-16 20:54:00,
2013-11-16 15:59:00,58.9,55.0,30.21,SW,225,0.0,0.0,87,0.00,,OVC055,0.04,VWS V14.01,2013-11-16 20:59:00,
2013-11-16 16:00:00,58.9,55.0,30.21,SW,225,0.0,3.0,87,0.00,,OVC055,0.04,VWS V14.01,2013-11-16 21:00:00,
2013-11-16 16:04:00,58.7,55.2,30.21,East,84,1.0,3.0,88,0.00,,OVC055,0.04,VWS V14.01,2013-11-16 21:04:00,
2013-11-16 16:09:00,58.4,54.9,30.21,WSW,244,1.0,3.0,88,0.00,,OVC055,0.04,VWS V14.01,2013-11-16 21:09:00,
2013-11-16 16:14:00,58.1,54.9,30.21,WSW,245,0.0,3.0,89,0.00,,OVC055,0.04,VWS V14.01,2013-11-16 21:14:00,
2013-11-16 16:19:00,57.7,54.5,30.21,WNW,293,0.0,3.0,89,0.00,,OVC055,0.04,VWS V14.01,2013-11-16 21:19:00,
2013-11-16 16:24:00,57.3,54.4,30.21,SW,221,0.0,3.0,90,0.00,,OVC055,0.04,VWS V14.01,2013-11-16 21:24:00,
2013-11-16 16:29:00,57.1,54.5,30.21,WNW,293,0.0,2.0,91,0.00,,OVC055,0.04,VWS V14.01,2013-11-16 21:29:00,
2013-11-16 16:30:00,57.2,54.6,30.21,SW,221,0.0,3.0,91,0.00,,OVC055,0.04,VWS V14.01,2013-11-16 21:30:00,
2013-11-16 16:34:00,56.8,54.2,30.21,WNW,293,0.0,2.0,91,0.00,,OVC055,0.04,VWS V14.01,2013-11-16 21:34:00,
2013-11-16 16:39:00,56.6,54.0,30.22,WNW,293,0.0,2.0,91,0.00,,OVC055,0.04,VWS V14.01,2013-11-16 21:39:00,
2013-11-16 16:44:00,56.4,54.1,30.21,WSW,246,1.0,3.0,92,0.00,,OVC055,0.04,VWS V14.01,2013-11-16 21:44:00,
2013-11-16 16:49:00,56.2,53.9,30.21,WSW,246,1.0,3.0,92,0.00,,OVC055,0.04,VWS V14.01,2013-11-16 21:49:00,
2013-11-16 16:54:00,56.0,54.0,30.21,WSW,247,0.0,3.0,93,0.00,,OVC055,0.04,VWS V14.01,2013-11-16 21:54:00,
2013-11-16 16:59:00,55.9,53.9,30.21,WSW,247,2.0,3.0,93,0.00,,OVC055,0.04,VWS V14.01,2013-11-16 21:59:00,
2013-11-16 17:00:00,55.9,53.9,30.21,WSW,247,0.0,3.0,93,0.00,,OVC055,0.04,VWS V14.01,2013-11-16 22:00:00,
2013-11-16 17:04:00,55.7,54.0,30.21,WSW,247,0.0,3.0,94,0.00,,OVC055,0.04,VWS V14.01,2013-11-16 22:04:00,
2013-11-16 17:09:00,55.6,53.9,30.21,WSW,247,0.0,3.0,94,0.00,,OVC055,0.04,VWS V14.01,2013-11-16 22:09:00,
2013-11-16 17:14:00,55.5,53.8,30.21,WSW,247,0.0,3.0,94,0.00,,OVC055,0.04,VWS V14.01,2013-11-16 22:14:00,
2013-11-16 17:19:00,55.3,53.6,30.22,SSW,194,0.0,3.0,94,0.00,,OVC055,0.04,VWS V14.01,2013-11-16 22:19:00,
2013-11-16 17:24:00,55.3,53.6,30.22,SSW,194,0.0,3.0,94,0.00,,OVC055,0.04,VWS V14.01,2013-11-16 22:24:00,
2013-11-16 17:29:00,55.2,53.8,30.22,SSW,194,0.0,1.0,95,0.00,,OVC055,0.04,VWS V14.01,2013-11-16 22:29:00,
2013-11-16 17:30:00,55.2,53.8,30.22,SSW,194,0.0,3.0,95,0.00,,OVC055,0.04,VWS V14.01,2013-11-16 22:30:00,
2013-11-16 17:34:00,55.1,53.7,30.22,SSW,194,0.0,1.0,95,0.00,,OVC055,0.04,VWS V14.01,2013-11-16 22:34:00,
2013-11-16 17:39:00,55.1,53.7,30.22,SSW,194,0.0,1.0,95,0.00,,OVC055,0.04,VWS V14.01,2013-11-16 22:39:00,
2013-11-16 17:44:00,55.0,53.6,30.23,SSW,194,0.0,1.0,95,0.00,,OVC055,0.04,VWS V14.01,2013-11-16 22:44:00,
2013-11-16 17:49:00,54.9,53.8,30.23,SSW,194,0.0,1.0,96,0.00,,OVC055,0.04,VWS V14.01,2013-11-16 22:49:00,
2013-11-16 17:54:00,54.8,53.7,30.23,SSW,194,0.0,1.0,96,0.00,,OVC055,0.04,VWS V14.01,2013-11-16 22:54:00,
2013-11-16 17:59:00,54.8,53.7,30.23,SSW,194,0.0,0.0,96,0.00,,OVC055,0.04,VWS V14.01,2013-11-16 22:59:00,
2013-11-16 18:00:00,54.8,53.7,30.23,SSW,194,0.0,1.0,96,0.00,,OVC055,0.04,VWS V14.01,2013-11-16 23:00:00,
2013-11-16 18:04:00,54.7,53.6,30.23,SSW,194,0.0,0.0,96,0.00,,OVC055,0.04,VWS V14.01,2013-11-16 23:04:00,
2013-11-16 18:09:00,54.6,53.8,30.23,SSW,194,0.0,0.0,97,0.00,,OVC055,0.04,VWS V14.01,2013-11-16 23:09:00,
2013-11-16 18:14:00,54.5,53.7,30.23,SSW,194,0.0,0.0,97,0.00,,OVC055,0.04,VWS V14.01,2013-11-16 23:14:00,
2013-11-16 18:19:00,54.5,53.7,30.23,SSW,194,0.0,0.0,97,0.00,,OVC055,0.04,VWS V14.01,2013-11-16 23:19:00,
2013-11-16 18:24:00,54.4,53.6,30.23,SSW,194,0.0,0.0,97,0.00,,OVC055,0.04,VWS V14.01,2013-11-16 23:24:00,
2013-11-16 18:29:00,54.4,53.8,30.23,SSW,194,0.0,0.0,98,0.00,,OVC055,0.04,VWS V14.01,2013-11-16 23:29:00,
2013-11-16 18:30:00,54.4,53.6,30.23,SSW,194,0.0,0.0,97,0.00,,OVC055,0.04,VWS V14.01,2013-11-16 23:30:00,
2013-11-16 18:33:00,54.3,53.8,30.23,SSW,194,0.0,0.0,98,0.00,,OVC055,0.04,VWS V14.01,2013-11-16 23:33:00,
2013-11-16 18:38:00,54.2,53.7,30.23,SSW,194,0.0,0.0,98,0.00,,OVC055,0.04,VWS V14.01,2013-11-16 23:38:00,
2013-11-16 18:43:00,54.2,53.7,30.23,SSW,194,0.0,0.0,98,0.00,,OVC055,0.04,VWS V14.01,2013-11-16 23:43:00,
2013-11-16 18:48:00,54.2,53.7,30.23,SSW,194,0.0,0.0,98,0.00,,OVC055,0.04,VWS V14.01,2013-11-16 23:48:00,
2013-11-16 18:53:00,54.1,53.5,30.23,SSW,194,0.0,0.0,98,0.00,,OVC055,0.04,VWS V14.01,2013-11-16 23:53:00,
2013-11-16 18:58:00,54.1,53.5,30.23,SSW,194,0.0,0.0,98,0.00,,OVC055,0.04,VWS V14.01,2013-11-16 23:58:00,
2013-11-16 19:00:00,54.1,53.5,30.23,SSW,194,0.0,0.0,98,0.00,,OVC055,0.04,VWS V14.01,2013-11-17 00:00:00,
2013-11-16 19:03:00,54.0,53.5,30.23,SSW,194,0.0,0.0,98,0.00,,OVC055,0.04,VWS V14.01,2013-11-17 00:03:00,
2013-11-16 19:08:00,54.0,53.5,30.23,SSW,194,0.0,0.0,98,0.00,,OVC055,0.04,VWS V14.01,2013-11-17 00:08:00,
2013-11-16 19:13:00,53.9,53.3,30.24,SSW,194,0.0,0.0,98,0.00,,OVC055,0.04,VWS V14.01,2013-11-17 00:13:00,
2013-11-16 19:18:00,53.9,53.3,30.24,SSW,194,0.0,0.0,98,0.00,,OVC055,0.04,VWS V14.01,2013-11-17 00:18:00,
2013-11-16 19:23:00,53.9,53.3,30.24,SSW,194,0.0,0.0,98,0.00,,OVC055,0.04,VWS V14.01,2013-11-17 00:23:00,
2013-11-16 19:28:00,53.9,53.3,30.24,SSW,194,0.0,0.0,98,0.00,,OVC055,0.04,VWS V14.01,2013-11-17 00:28:00,
2013-11-16 19:30:00,53.8,53.5,30.24,SSW,194,0.0,0.0,99,0.00,,OVC055,0.04,VWS V14.01,2013-11-17 00:30:00,
2013-11-16 19:33:00,53.8,53.2,30.25,SSW,194,0.0,0.0,98,0.00,,OVC055,0.04,VWS V14.01,2013-11-17 00:33:00,
2013-11-16 19:38:00,53.8,53.2,30.25,SSW,194,0.0,0.0,98,0.00,,OVC055,0.04,VWS V14.01,2013-11-17 00:38:00,
2013-11-16 19:43:00,53.7,53.2,30.24,SSW,194,0.0,0.0,98,0.00,,OVC055,0.04,VWS V14.01,2013-11-17 00:43:00,
2013-11-16 19:48:00,53.7,53.4,30.25,SSW,194,0.0,0.0,99,0.00,,OVC055,0.04,VWS V14.01,2013-11-17 00:48:00,
2013-11-16 19:53:00,53.6,53.3,30.25,SSW,194,0.0,0.0,99,0.00,,OVC055,0.04,VWS V14.01,2013-11-17 00:53:00,
2013-11-16 19:58:00,53.6,53.3,30.25,SSW,194,0.0,0.0,99,0.00,,OVC055,0.04,VWS V14.01,2013-11-17 00:58:00,
2013-11-16 20:00:00,53.6,53.0,30.25,SSW,194,0.0,0.0,98,0.00,,OVC055,0.04,VWS V14.01,2013-11-17 01:00:00,
2013-11-16 20:03:00,53.6,53.3,30.25,SSW,194,0.0,0.0,99,0.00,,OVC055,0.04,VWS V14.01,2013-11-17 01:03:00,
2013-11-16 20:08:00,53.6,53.3,30.25,SSW,194,0.0,0.0,99,0.00,,OVC055,0.04,VWS V14.01,2013-11-17 01:08:00,
2013-11-16 20:13:00,53.6,53.3,30.25,SSW,194,0.0,0.0,99,0.00,,OVC055,0.04,VWS V14.01,2013-11-17 01:13:00,
2013-11-16 20:18:00,53.6,53.3,30.25,SSW,194,0.0,0.0,99,0.00,,OVC055,0.04,VWS V14.01,2013-11-17 01:18:00,
2013-11-16 20:23:00,53.5,53.2,30.25,SSW,194,0.0,0.0,99,0.00,,OVC055,0.04,VWS V14.01,2013-11-17 01:23:00,
2013-11-16 20:28:00,53.5,53.2,30.25,SSW,194,0.0,0.0,99,0.00,,OVC055,0.04,VWS V14.01,2013-11-17 01:28:00,
2013-11-16 20:30:00,53.5,53.2,30.25,SSW,194,0.0,0.0,99,0.00,,OVC055,0.04,VWS V14.01,2013-11-17 01:30:00,
2013-11-16 20:33:00,53.5,53.2,30.26,SSW,194,0.0,0.0,99,0.00,,OVC055,0.04,VWS V14.01,2013-11-17 01:33:00,
2013-11-16 20:38:00,53.4,53.1,30.26,SSW,194,0.0,0.0,99,0.00,,OVC055,0.04,VWS V14.01,2013-11-17 01:38:00,
2013-11-16 20:43:00,53.4,53.1,30.25,SSW,194,0.0,0.0,99,0.00,,OVC055,0.04,VWS V14.01,2013-11-17 01:43:00,
2013-11-16 20:48:00,53.3,53.0,30.25,SSW,194,0.0,0.0,99,0.00,,OVC055,0.04,VWS V14.01,2013-11-17 01:48:00,
2013-11-16 20:53:00,53.3,53.0,30.25,SSW,194,0.0,0.0,99,0.00,,OVC055,0.04,VWS V14.01,2013-11-17 01:53:00,
2013-11-16 20:58:00,53.3,53.0,30.25,SSW,194,0.0,0.0,99,0.00,,OVC055,0.04,VWS V14.01,2013-11-17 01:58:00,
2013-11-16 21:00:00,53.3,53.0,30.25,SSW,194,0.0,0.0,99,0.00,,OVC055,0.04,VWS V14.01,2013-11-17 02:00:00,
2013-11-16 21:03:00,53.3,53.0,30.25,SSW,194,0.0,0.0,99,0.00,,OVC055,0.04,VWS V14.01,2013-11-17 02:03:00,
2013-11-16 21:08:00,53.2,52.9,30.25,SSW,194,0.0,0.0,99,0.00,,OVC055,0.04,VWS V14.01,2013-11-17 02:08:00,
2013-11-16 21:13:00,53.2,52.9,30.25,SSW,194,0.0,0.0,99,0.00,,OVC055,0.04,VWS V14.01,2013-11-17 02:13:00,
2013-11-16 21:18:00,53.2,52.9,30.25,SSW,194,0.0,0.0,99,0.00,,OVC055,0.04,VWS V14.01,2013-11-17 02:18:00,
2013-11-16 21:23:00,53.2,52.9,30.25,SSW,194,0.0,0.0,99,0.00,,OVC055,0.04,VWS V14.01,2013-11-17 02:23:00,
2013-11-16 21:28:00,53.2,52.9,30.25,SSW,194,0.0,0.0,99,0.00,,OVC055,0.04,VWS V14.01,2013-11-17 02:28:00,
2013-11-16 21:30:00,53.2,52.9,30.25,SSW,194,0.0,0.0,99,0.00,,OVC055,0.04,VWS V14.01,2013-11-17 02:30:00,
2013-11-16 21:33:00,53.2,52.9,30.25,SSW,194,0.0,0.0,99,0.00,,OVC055,0.04,VWS V14.01,2013-11-17 02:33:00,
2013-11-16 21:38:00,53.2,52.9,30.25,SSW,194,0.0,0.0,99,0.00,,OVC055,0.04,VWS V14.01,2013-11-17 02:38:00,
2013-11-16 21:43:00,53.2,52.9,30.25,SSW,194,0.0,0.0,99,0.00,,OVC055,0.04,VWS V14.01,2013-11-17 02:43:00,
2013-11-16 21:48:00,53.2,52.9,30.25,SSW,194,0.0,0.0,99,0.00,,OVC055,0.04,VWS V14.01,2013-11-17 02:48:00,
2013-11-16 21:53:00,53.1,52.8,30.24,SSW,194,0.0,0.0,99,0.00,,OVC055,0.04,VWS V14.01,2013-11-17 02:53:00,
2013-11-16 21:58:00,53.1,52.8,30.24,SSW,194,0.0,0.0,99,0.00,,OVC055,0.04,VWS V14.01,2013-11-17 02:58:00,
2013-11-16 22:00:00,53.1,52.8,30.24,SSW,194,0.0,0.0,99,0.00,,OVC055,0.04,VWS V14.01,2013-11-17 03:00:00,
2013-11-16 22:03:00,53.0,53.0,30.24,SSW,194,0.0,0.0,100,0.00,,OVC055,0.04,VWS V14.01,2013-11-17 03:03:00,
2013-11-16 22:08:00,53.0,52.7,30.24,SSW,194,0.0,0.0,99,0.00,,OVC055,0.04,VWS V14.01,2013-11-17 03:08:00,
2013-11-16 22:13:00,52.9,52.6,30.24,SSW,194,0.0,0.0,99,0.00,,OVC055,0.04,VWS V14.01,2013-11-17 03:13:00,
2013-11-16 22:18:00,52.9,52.9,30.24,SSW,194,0.0,0.0,100,0.00,,OVC055,0.04,VWS V14.01,2013-11-17 03:18:00,
2013-11-16 22:23:00,52.9,52.9,30.24,SSW,194,0.0,0.0,100,0.00,,OVC055,0.04,VWS V14.01,2013-11-17 03:23:00,
2013-11-16 22:28:00,52.9,52.9,30.24,SSW,194,0.0,0.0,100,0.00,,OVC055,0.04,VWS V14.01,2013-11-17 03:28:00,
2013-11-16 22:30:00,52.9,52.9,30.23,SSW,194,0.0,0.0,100,0.00,,OVC055,0.04,VWS V14.01,2013-11-17 03:30:00,
2013-11-16 22:33:00,52.9,52.9,30.23,SSW,194,0.0,0.0,100,0.00,,OVC055,0.04,VWS V14.01,2013-11-17 03:33:00,
2013-11-16 22:38:00,52.9,52.9,30.23,SSW,194,0.0,0.0,100,0.00,,OVC055,0.04,VWS V14.01,2013-11-17 03:38:00,
2013-11-16 22:43:00,52.9,52.9,30.23,SSW,194,0.0,0.0,100,0.00,,OVC055,0.04,VWS V14.01,2013-11-17 03:43:00,
2013-11-16 22:48:00,52.9,52.9,30.23,SSW,194,0.0,0.0,100,0.00,,OVC055,0.04,VWS V14.01,2013-11-17 03:48:00,
2013-11-16 22:53:00,52.8,52.8,30.24,SSW,194,0.0,0.0,100,0.00,,OVC055,0.04,VWS V14.01,2013-11-17 03:53:00,
2013-11-16 22:58:00,52.8,52.8,30.23,SSW,194,0.0,0.0,100,0.00,,OVC055,0.04,VWS V14.01,2013-11-17 03:58:00,
2013-11-16 23:00:00,52.8,52.8,30.23,SSW,194,0.0,0.0,100,0.00,,OVC055,0.04,VWS V14.01,2013-11-17 04:00:00,
2013-11-16 23:03:00,52.9,52.9,30.23,SSW,194,0.0,0.0,100,0.00,,OVC055,0.04,VWS V14.01,2013-11-17 04:03:00,
2013-11-16 23:08:00,53.0,53.0,30.23,SSW,194,0.0,2.0,100,0.00,,OVC055,0.04,VWS V14.01,2013-11-17 04:08:00,
2013-11-16 23:13:00,52.9,52.9,30.23,SSW,194,0.0,2.0,100,0.00,,OVC055,0.04,VWS V14.01,2013-11-17 04:13:00,
2013-11-16 23:18:00,52.9,52.9,30.23,SSW,194,0.0,2.0,100,0.00,,OVC055,0.04,VWS V14.01,2013-11-17 04:18:00,
2013-11-16 23:23:00,52.9,52.9,30.23,SSW,194,0.0,2.0,100,0.00,,OVC055,0.04,VWS V14.01,2013-11-17 04:23:00,
2013-11-16 23:28:00,52.9,52.9,30.24,SSW,194,0.0,0.0,100,0.00,,OVC055,0.04,VWS V14.01,2013-11-17 04:28:00,
2013-11-16 23:30:00,52.9,52.9,30.24,SSW,194,0.0,2.0,100,0.00,,OVC055,0.04,VWS V14.01,2013-11-17 04:30:00,
2013-11-16 23:33:00,52.8,52.8,30.23,SSW,194,0.0,0.0,100,0.00,,OVC055,0.04,VWS V14.01,2013-11-17 04:33:00,
2013-11-16 23:38:00,52.8,52.8,30.24,SSW,194,0.0,0.0,100,0.00,,OVC055,0.04,VWS V14.01,2013-11-17 04:38:00,
2013-11-16 23:43:00,52.7,52.7,30.24,SSW,194,0.0,0.0,100,0.00,,OVC055,0.04,VWS V14.01,2013-11-17 04:43:00,
2013-11-16 23:48:00,52.7,52.7,30.24,SSW,194,0.0,0.0,100,0.00,,OVC055,0.04,VWS V14.01,2013-11-17 04:48:00,
2013-11-16 23:53:00,52.7,52.7,30.24,SSW,194,0.0,0.0,100,0.00,,OVC055,0.04,VWS V14.01,2013-11-17 04:53:00,
2013-11-16 23:58:00,52.8,52.8,30.23,SSW,194,0.0,0.0,100,0.00,,OVC055,0.00,VWS V14.01,2013-11-17 04:58:00,